Tracking 19709 objects as of 20-Jun-2019
HD Live streaming from Space Station
objects crossing your sky now

DELTA 1 DEB

Track DELTA 1 DEB now!
10-day predictions


NORAD ID: 12246
Int'l Code: 1978-026CP
Perigee: 852.3 km
Apogee: 934.3 km
Inclination: 99.3 °
Period: 102.7 minutes
Semi major axis: 7264 km
RCS: 0.186 m2 (medium)
Launch date: March 5, 1978
Source: United States (US)
Launch site: AIR FORCE WESTERN TEST RANGE (AFWTR)

Note: This is SATELLITE DEBRIS
aabbcc
Your satellite tracking list
Your tracking list is empty




NASA's NSSDC Master Catalog

Two Line Element Set (TLE):
1 12246U 78026CP  19171.13663991 -.00000129  00000-0 -53482-4 0  9995
2 12246  99.3016 347.8283 0056426 177.6129 304.9268 14.02204461959847
Source of the keplerian elements: AFSPC